When you browse on this site, cookies collect data to enhance your experience and personalize the content and advertising you see.
Visit our Privacy Policy to learn more. By continuing to use the site, you agree to this use of cookies and data.
  • In Hungary
  • List of Countries
  • For 7 days
  • Water Temperature
  • Weather Map
  • News
  • Weather Widgets
  • user-avatar
    Login

    Hourly Weather Zbroslawice

    Today, 22 September, Sunday

    Time Temperature Precipitation Wind Pressure Humidity
    00:00 +12°C° 0 mm 2 mps 743 mmHg 64%
    01:00 +10°C° 0 mm 2 mps 743 mmHg 64%
    02:00 +10°C° 0 mm 2 mps 743 mmHg 64%
    03:00 +10°C° 0 mm 2 mps 742 mmHg 65%
    04:00 +10°C° 0 mm 2 mps 742 mmHg 65%
    05:00 +10°C° 0 mm 2 mps 742 mmHg 64%
    06:00 +12°C° 0 mm 2 mps 742 mmHg 63%
    07:00 +12°C° 0 mm 2 mps 742 mmHg 61%
    08:00 +13°C° 0 mm 3 mps 742 mmHg 55%
    09:00 +16°C° 0 mm 3 mps 741 mmHg 48%
    10:00 +18°C° 0 mm 3 mps 741 mmHg 42%
    11:00 +19°C° 0 mm 3 mps 741 mmHg 40%
    12:00 +20°C° 0 mm 3 mps 740 mmHg 38%
    13:00 +21°C° 0 mm 2 mps 740 mmHg 36%
    14:00 +21°C° 0 mm 2 mps 740 mmHg 38%
    15:00 +22°C° 0 mm 1 mps 739 mmHg 39%
    16:00 +22°C° 0 mm 1 mps 739 mmHg 40%
    17:00 +20°C° 0 mm 1 mps 739 mmHg 45%
    18:00 +18°C° 0 mm 1 mps 739 mmHg 50%
    19:00 +15°C° 0 mm 0 mps 739 mmHg 56%
    20:00 +14°C° 0 mm 0 mps 739 mmHg 58%
    21:00 +15°C° 0 mm 1 mps 739 mmHg 60%
    22:00 +14°C° 0 mm 1 mps 739 mmHg 62%
    23:00 +14°C° 0 mm 1 mps 739 mmHg 64%

    Tomorrow, 23 September, Monday

    Time Temperature Precipitation Wind Pressure Humidity
    00:00 +14°C° 0 mm 1 mps 738 mmHg 67%
    01:00 +13°C° 0 mm 2 mps 738 mmHg 70%
    02:00 +13°C° 0 mm 2 mps 738 mmHg 71%
    03:00 +13°C° 0 mm 2 mps 738 mmHg 72%
    04:00 +13°C° 0 mm 2 mps 738 mmHg 73%
    05:00 +14°C° 0 mm 2 mps 738 mmHg 71%
    06:00 +14°C° 0 mm 2 mps 738 mmHg 69%
    07:00 +14°C° 0 mm 2 mps 738 mmHg 68%
    08:00 +15°C° 0 mm 2 mps 738 mmHg 66%
    09:00 +16°C° 0 mm 2 mps 738 mmHg 64%
    10:00 +16°C° 0 mm 2 mps 738 mmHg 62%
    11:00 +17°C° 0 mm 2 mps 738 mmHg 58%
    12:00 +19°C° 0 mm 2 mps 738 mmHg 55%
    13:00 +21°C° 0 mm 1 mps 738 mmHg 51%
    14:00 +21°C° 0 mm 1 mps 738 mmHg 51%
    15:00 +21°C° 0 mm 1 mps 738 mmHg 50%
    16:00 +21°C° 0 mm 1 mps 738 mmHg 50%
    17:00 +20°C° 0 mm 1 mps 738 mmHg 54%
    18:00 +18°C° 0 mm 1 mps 738 mmHg 58%
    19:00 +16°C° 0 mm 1 mps 738 mmHg 62%
    20:00 +16°C° 0 mm 1 mps 738 mmHg 63%
    21:00 +15°C° 0 mm 1 mps 738 mmHg 64%
    22:00 +15°C° 0 mm 1 mps 738 mmHg 65%
    23:00 +15°C° 0 mm 1 mps 738 mmHg 66%

    Day after tomorrow, 24 September, Tuesday

    Time Temperature Precipitation Wind Pressure Humidity
    00:00 +15°C° 0 mm 1 mps 738 mmHg 68%
    01:00 +15°C° 0 mm 1 mps 738 mmHg 69%
    02:00 +15°C° 0 mm 1 mps 738 mmHg 72%
    03:00 +14°C° 0 mm 1 mps 738 mmHg 76%
    04:00 +14°C° 0 mm 1 mps 738 mmHg 79%
    05:00 +14°C° 0 mm 1 mps 738 mmHg 79%
    06:00 +14°C° 0 mm 1 mps 738 mmHg 78%
    07:00 +15°C° 0 mm 1 mps 738 mmHg 78%
    08:00 +16°C° 0 mm 1 mps 738 mmHg 71%
    09:00 +19°C° 0 mm 1 mps 738 mmHg 64%
    10:00 +21°C° 0 mm 1 mps 738 mmHg 56%
    11:00 +22°C° 0 mm 1 mps 738 mmHg 52%
    12:00 +23°C° 0 mm 2 mps 737 mmHg 47%
    13:00 +23°C° 0 mm 2 mps 737 mmHg 43%
    14:00 +23°C° 0 mm 2 mps 736 mmHg 44%
    15:00 +23°C° 0 mm 2 mps 736 mmHg 45%
    16:00 +23°C° 0 mm 2 mps 736 mmHg 46%
    17:00 +20°C° 0 mm 2 mps 736 mmHg 51%
    18:00 +19°C° 0 mm 2 mps 735 mmHg 57%
    19:00 +18°C° 0 mm 2 mps 735 mmHg 62%
    20:00 +17°C° 0 mm 2 mps 735 mmHg 65%
    21:00 +17°C° 0 mm 2 mps 735 mmHg 67%
    22:00 +16°C° 0 mm 1 mps 735 mmHg 70%
    23:00 +16°C° 0 mm 1 mps 735 mmHg 70%

    25 September, Wednesday

    Time Temperature Precipitation Wind Pressure Humidity
    00:00 +16°C° 0 mm 1 mps 734 mmHg 71%
    01:00 +16°C° 0 mm 1 mps 734 mmHg 71%
    02:00 +16°C° 0 mm 1 mps 734 mmHg 72%
    03:00 +16°C° 0 mm 1 mps 734 mmHg 72%
    04:00 +16°C° 0 mm 2 mps 733 mmHg 72%
    05:00 +16°C° 0.2 mm 2 mps 733 mmHg 74%
    06:00 +16°C° 0.2 mm 2 mps 733 mmHg 75%
    07:00 +16°C° 0.2 mm 2 mps 733 mmHg 77%
    08:00 +17°C° 0.5 mm 2 mps 733 mmHg 73%
    09:00 +18°C° 0.5 mm 3 mps 733 mmHg 69%
    10:00 +19°C° 0.5 mm 3 mps 733 mmHg 65%
    11:00 +18°C° 0.3 mm 3 mps 733 mmHg 65%
    12:00 +18°C° 0.3 mm 3 mps 733 mmHg 66%
    13:00 +18°C° 0.3 mm 3 mps 732 mmHg 67%
    14:00 +18°C° 0 mm 3 mps 732 mmHg 67%
    15:00 +18°C° 0 mm 2 mps 732 mmHg 68%
    16:00 +17°C° 0 mm 2 mps 732 mmHg 68%
    17:00 +16°C° 0 mm 2 mps 732 mmHg 73%
    18:00 +15°C° 0 mm 2 mps 733 mmHg 77%
    19:00 +14°C° 0 mm 1 mps 733 mmHg 81%
    20:00 +14°C° 0 mm 2 mps 733 mmHg 83%
    21:00 +14°C° 0 mm 2 mps 733 mmHg 85%
    22:00 +14°C° 0 mm 2 mps 734 mmHg 86%
    23:00 +14°C° 0 mm 2 mps 734 mmHg 87%

    26 September, Thursday

    Time Temperature Precipitation Wind Pressure Humidity
    00:00 +13°C° 0 mm 2 mps 734 mmHg 89%
    01:00 +13°C° 0 mm 2 mps 734 mmHg 90%
    02:00 +13°C° 0 mm 2 mps 734 mmHg 90%
    03:00 +13°C° 0 mm 2 mps 734 mmHg 89%
    04:00 +13°C° 0 mm 2 mps 735 mmHg 89%
    05:00 +13°C° 0.1 mm 2 mps 735 mmHg 88%
    06:00 +12°C° 0.1 mm 3 mps 735 mmHg 87%
    07:00 +13°C° 0.1 mm 3 mps 735 mmHg 86%
    08:00 +13°C° 0.1 mm 3 mps 736 mmHg 82%
    09:00 +14°C° 0.1 mm 3 mps 736 mmHg 79%
    10:00 +15°C° 0.1 mm 4 mps 737 mmHg 75%
    11:00 +17°C° 0.2 mm 4 mps 736 mmHg 70%
    12:00 +18°C° 0.2 mm 3 mps 736 mmHg 66%
    13:00 +19°C° 0.2 mm 3 mps 736 mmHg 62%
    14:00 +18°C° 0.3 mm 3 mps 736 mmHg 63%
    15:00 +18°C° 0.3 mm 3 mps 736 mmHg 64%
    16:00 +18°C° 0.3 mm 3 mps 736 mmHg 66%
    17:00 +17°C° 0.1 mm 2 mps 736 mmHg 70%
    18:00 +16°C° 0.1 mm 2 mps 737 mmHg 75%
    19:00 +15°C° 0.1 mm 1 mps 737 mmHg 79%
    20:00 +14°C° 0 mm 1 mps 737 mmHg 81%
    21:00 +14°C° 0 mm 1 mps 737 mmHg 83%
    22:00 +13°C° 0 mm 2 mps 737 mmHg 85%
    23:00 +13°C° 0 mm 2 mps 737 mmHg 86%

    27 September, Friday

    Time Temperature Precipitation Wind Pressure Humidity
    00:00 +13°C° 0 mm 1 mps 737 mmHg 87%
    01:00 +13°C° 0 mm 1 mps 737 mmHg 88%
    02:00 +13°C° 0 mm 1 mps 738 mmHg 88%
    03:00 +13°C° 0 mm 2 mps 738 mmHg 88%
    04:00 +13°C° 0 mm 2 mps 738 mmHg 88%
    05:00 +14°C° 0 mm 2 mps 738 mmHg 88%
    06:00 +14°C° 0 mm 2 mps 738 mmHg 87%
    07:00 +14°C° 0 mm 2 mps 738 mmHg 87%
    08:00 +15°C° 0 mm 2 mps 738 mmHg 82%
    09:00 +17°C° 0 mm 3 mps 738 mmHg 76%
    10:00 +18°C° 0 mm 3 mps 738 mmHg 71%
    11:00 +18°C° 0 mm 3 mps 738 mmHg 73%
    12:00 +18°C° 0 mm 2 mps 738 mmHg 75%
    13:00 +17°C° 0 mm 2 mps 738 mmHg 76%
    14:00 +17°C° 0.1 mm 3 mps 738 mmHg 80%
    15:00 +16°C° 0.1 mm 3 mps 737 mmHg 83%
    16:00 +16°C° 0.1 mm 3 mps 737 mmHg 87%
    17:00 +16°C° 0 mm 3 mps 737 mmHg 86%
    18:00 +14°C° 0 mm 3 mps 738 mmHg 86%
    19:00 +15°C° 0 mm 2 mps 738 mmHg 85%
    20:00 +15°C° 0 mm 2 mps 738 mmHg 86%
    21:00 +15°C° 0 mm 2 mps 738 mmHg 87%
    22:00 +14°C° 0 mm 2 mps 738 mmHg 87%
    23:00 +15°C° 0 mm 2 mps 738 mmHg 86%
    Show more